This demonstration page uses our WeatherBlox Daily Observations layout. Learn more.

39.92423, -83.80882

Hourly Observations for June 22, 2016

Temp ( °F °C ) Dew Point ( °F °C ) Humidity (%) Winds ( mph kmh ) Pressure ( in mb ) Visibility ( mi km ) Precip ( " mm )
12:56 am 00:56 Clear 66 18.8 56 13.3 71 71 NNW 5 7 29.97 1015 10 16.0934 0 0
1:56 am 01:56 Clear 66 18.8 55 12.7 68 68 Calm 29.96 1015 10 16.0934 0 0
2:56 am 02:56 Clear 62 16.6 58 14.4 87 87 Calm 29.97 1015 10 16.0934 0 0
3:56 am 03:56 Clear 59 15 56 13.3 90 90 Calm 29.96 1015 10 16.0934 0 0
4:56 am 04:56 Clear 59 15 56 13.3 90 90 Calm 29.93 1014 10 16.0934 0 0
5:56 am 05:56 Clear 60 15.5 56 13.3 87 87 SSE 3 6 29.95 1014 10 16.0934 0 0
6:56 am 06:56 Sunny 61 16.1 58 14.4 90 90 Calm 29.98 1015 10 16.0934 0 0
7:56 am 07:56 Sunny 65 18.3 58 14.4 78 78 Calm 29.98 1015 10 16.0934 0 0
8:56 am 08:56 Sunny 67 19.4 61 16.1 81 81 SW 6 9 30.01 1016 10 16.0934 0 0
9:56 am 09:56 Sunny 68 20 62 16.6 81 81 SW 3 6 29.99 1016 10 16.0934 0 0
10:56 am 10:56 Mostly Sunny 72 22.2 63 17.2 73 73 SSW 9 15 30.03 1017 10 16.0934 0 0
11:56 am 11:56 Mostly Cloudy with Light Rain 72 22.2 64 17.7 76 76 WSW 10 17 30.03 1017 10 16.0934 0 0.0254
12:56 pm 12:56 Sunny 72 22.2 64 17.7 76 76 S 3 6 29.98 1015 10 16.0934 0 0.0254
1:56 pm 13:56 Partly Cloudy 71 21.6 65 18.3 82 82 S 5 7 30.01 1016 10 16.0934 0 0
2:56 pm 14:56 Partly Cloudy 73 22.7 65 18.3 76 76 SSW 7 11 30.01 1016 10 16.0934 0 0
3:56 pm 15:56 Mostly Sunny 74 23.3 65 18.3 74 74 S 8 13 29.96 1015 10 16.0934 0 0
4:56 pm 16:56 Sunny 75 23.8 66 18.8 74 74 SSW 6 9 29.97 1015 10 16.0934 0 0
5:56 pm 17:56 Mostly Cloudy 76 24.4 67 19.4 74 74 SW 7 11 29.97 1015 10 16.0934 0 0
6:15 pm 18:15 Mostly Cloudy 77 25 66 19 69 69 SSW 5 7 29.97 1015 10 16.0934 0 0
6:56 pm 18:56 Mostly Cloudy 77 25 68 20 74 74 WSW 8 13 29.98 1015 10 16.0934 0 0
7:56 pm 19:56 Sunny 76 24.4 68 20 77 77 SSW 5 7 29.96 1015 10 16.0934 0 0
8:56 pm 20:56 Mostly Cloudy 74 23.3 68 20 82 82 SSE 6 9 29.95 1014 10 16.0934 0 0
9:56 pm 21:56 Clear 71 21.6 68 20 91 91 SSE 6 9 29.93 1013 10 16.0934 0 0
10:56 pm 22:56 Mostly Cloudy 73 22.7 69 20.5 87 87 SE 7 11 29.92 1013 10 16.0934 0 0
11:56 pm 23:56 Mostly Cloudy 73 22.7 70 21.1 91 91 SSE 10 17 29.89 1012 10 16.0934 0 0

Powered by AerisWeather